Regional Weather Roundup
Issued by NWS Kansas City/Pleasant Hill, MO

Home | Current Version | Previous Version | Graphics & Text | Print | Product List | Glossary Off
Versions: 1 2 3 4 5 6 7 8 9 10 11 12 13 14 15 16 17 18 19 20 21 22 23 24 25 26 27 28 29 30 31 32 33 34 35 36 37 38 39 40 41 42 43 44 45 46 47 48 49 50

000
ASUS43 KEAX 221710
RWREAX

WEATHER ROUNDUP FOR EASTERN KANSAS AND NORTHWEST MISSOURI
NATIONAL WEATHER SERVICE KANSAS CITY/PLEASANT HILL MO
1200 PM CDT TUE AUG 22 2017

KSZ040-057-103>105-MOZ028-029-037-043-221800-
...KANSAS CITY METROPOLITAN AREA...

CITY           SKY/WX    TMP DP  RH WIND       PRES   REMARKS
K.C. INTL      PTSUNNY   76  67  73 N9        30.12S
K.C. DOWNTOWN  PTSUNNY   77  67  71 N9        30.11R
LEES SUMMIT    NOT AVBL
OLATHE - IXD   SUNNY     76  68  76 N16       30.13R
OLATHE - OJC   SUNNY     75  66  73 N12       30.12R
LAWRENCE       MOSUNNY   78  68  71 N12       30.12S

$$

MOZ001>008-011>017-020>025-030>033-038>040-044>046-053-054-221800-
...NORTHERN AND CENTRAL MISSOURI...

CITY           SKY/WX    TMP DP  RH WIND       PRES   REMARKS
ST. JOSEPH     PTSUNNY   73  67  81 N13       30.14R
MOSBY          MOSUNNY   73  64  73 N10       30.11S
WARRENSBURG    CLOUDY    75  66  73 NW5       30.11S
WHITEMAN AFB   PTSUNNY   75  74  98 NW7       30.10R
CLINTON        PTSUNNY   77  72  83 N6        30.11S
SEDALIA        PTSUNNY   76  70  82 N6        30.12R
WARSAW         NOT AVBL
CHILLICOTHE      N/A     77  66  68 VRB6      30.10S
KIRKSVILLE     SUNNY     77  61  57 NW13      30.08R

$$

MOZ041-047>049-056>058-063>065-088>090-097-221800-
...EASTERN AND SOUTHERN MISSOURI...

CITY           SKY/WX    TMP DP  RH WIND       PRES   REMARKS
ST. LOUIS INTL CLOUDY    73  72  96 NW10      30.03R
SPIRIT OF STL  CLOUDY    76  72  87 NW12      30.02S
COLUMBIA       CLOUDY    73  67  81 NW14      30.09R
JEFFERSON CITY PTSUNNY   74  72  93 W13       30.08R
ROLLA          CLOUDY    74  70  87 W15G22    30.10S
OSAGE BEACH    CLOUDY    75  70  84 W10       30.10S
SPRINGFIELD    CLOUDY    69  69 100 SE3       30.10F
BRANSON        CLOUDY    68  68 100 SW6       30.14R
JOPLIN         PTSUNNY   80  73  79 E5        30.09F
WEST PLAINS    CLOUDY    71  68  90 NW5       30.10R

$$

IAZ060-094-KSZ022-034>040-054-083-096-NEZ052-066-093-221800-
...KANSAS...SOUTHEAST NEBRASKA AND IOWA...

CITY           SKY/WX    TMP DP  RH WIND       PRES   REMARKS
TOPEKA         MOSUNNY   78  69  73 N12       30.14R
MANHATTAN      SUNNY     78  65  63 N13       30.16R
EMPORIA        PTSUNNY   78  67  68 N13       30.12S
CHANUTE        CLOUDY    74  71  91 MISG      30.11R
WICHITA        CLOUDY    78  70  76 N18       30.10R
OMAHA          MOSUNNY   74  48  39 N13       30.18R
LINCOLN        SUNNY     74  52  46 N12       30.21S
FALLS CITY     MOSUNNY   75  64  68 N12       30.15S
LAMONI         SUNNY     75  57  53 NW14      30.12R
DES MOINES     MOSUNNY   74  54  49 NW14      30.10R

$$




USA.gov is the U.S. government's official web portal to all federal, state and local government web resources and services.